www.pogodaiklimat.ru

Погода и климат >> Архив погоды >> Австрия >> Вайтра


ПОГОДА в Вайтре

  • Прогноз погоды в Вайтре
  • Монитор погоды в Вайтре

АРХИВ ПОГОДЫ в Вайтре

Время (UTC), дата Ветер
(напр.,м/с)
 
Видим.   Явления Облачность Т
(С)
Тd
(С)
f
(%)
Тe
(С)
Тes
(С)
Комфортность P
(гПа)
Po
(гПа)
Тmin
(С)
Tmax
(С)
R
(мм)
R24
(мм)
S
(см)
19 16.09 З 2 н/о н/о +19.2 +12.1 63 +21 +21 комфорт 1015.9 951.2
20 16.09 СЗ 1 н/о н/о +18.4 +11.8 65 +20 +20 1016.2 951.3
21 16.09 З 1 н/о н/о +17.9 +10.9 64 +19 +19 1016.1 951.1
22 16.09 З 2 н/о н/о +17.9 +10.3 61 +18 +18 1016.1 951.0 0.0
23 16.09 З 2 н/о н/о +17.8 +10.2 61 +18 +18 1015.4 950.4
00 17.09 ЮЗ 2 н/о н/о +17.6 +10.4 63 +18 +18 1015.4 950.3 0.0
01 17.09 штиль 0 н/о н/о +16.3 +11.2 72 +16 +16 1015.7 950.3 0.0
02 17.09 ЮЗ 1 н/о н/о +15.9 +11.3 74 +17 +17 1015.6 950.2
03 17.09 З 1 н/о н/о +15.6 +11.1 75 +16 +16 1015.5 950.0 0.0
04 17.09 С 1 н/о н/о +14.5 +11.4 82 +15 +15 1016.0 950.2 0.0
05 17.09 СЗ 2 12 км 9/6 900 м
[Frnb Ac As Ci fib]
+14.3 +11.6 84 +14 +14 1016.3 950.5
06 17.09 СЗ 2 8000 м сильн. морось {ливн. осадки} 10/10 840 м
[Frnb]
+14.3 +12.5 89 +14 +14 1016.3 950.5 +14.3 +19.7 0.0
07 17.09 З 2 н/о в посл. час осадки н/о +13.9 +12.8 93 +13 +13 1016.7 950.8 0.2
08 17.09 С 1 н/о н/о +12.5 +11.2 92 +12 +12 1017.4 951.1 0.0
09 17.09 штиль 0 н/о осадки н/о +11.9 +10.8 93 +11 +11 1017.8 951.3 0.4
10 17.09 С 1 н/о ливневой дождь н/о +11.8 +10.7 93 +12 +12 1017.8 951.3 0.1
11 17.09 штиль 0 н/о в посл. час осадки н/о +12.6 +11.0 90 +12 +12 1017.3 951.0 0.2
12 17.09 штиль 0 12 км в посл. час морось {ливн. осадки} 9/8 870 м
[Frnb Ac As Ci fib]
+14.5 +12.7 89 +14 +16 1015.9 950.2 0.7
13 17.09 С 1 н/о н/о +15.0 +12.2 83 +16 +16 1015.4 949.8
14 17.09 С 1 н/о н/о +16.5 +12.9 79 +17 +17 1014.3 949.1
15 17.09 СЗ 1 н/о н/о +17.3 +13.2 77 +18 +18 1013.8 948.8
16 17.09 З 3 н/о н/о +17.3 +9.5 60 +17 +17 1014.0 948.9
17 17.09 З 3 н/о н/о +15.4 +9.0 66 +15 +15 1014.5 949.0
18 17.09 З 4 30 км {морось} 8/1 900 м
[Frnb Ac cast Ci fib]
+14.3 +9.1 71 +13 +13 1015.4 949.6 +11.6 +18.3 0.7
19 17.09 З 3 н/о н/о +13.6 +9.1 74 +12 +12 1016.3 950.3
20 17.09 З 3 н/о н/о +13.2 +8.5 73 +12 +12 1017.2 951.0
21 17.09 З 2 н/о н/о +12.8 +7.6 71 +12 +12 1017.6 951.3
22 17.09 З 2 н/о н/о +12.6 +6.8 68 +12 +12 1017.9 951.5
23 17.09 СЗ 3 н/о н/о +12.0 +5.6 65 +11 +11 1018.9 952.3
00 18.09 СЗ 3 н/о н/о +11.5 +5.1 65 +10 +10 1019.8 953.0
01 18.09 СЗ 3 н/о н/о +10.5 +3.0 60 +9 +9 1020.5 953.4
02 18.09 З 2 н/о н/о +9.0 +3.2 67 +8 +8 1021.5 954.0
03 18.09 ЮЗ 1 н/о н/о +7.9 +3.4 73 +7 +7 1022.2 954.4
04 18.09 З 1 н/о н/о +7.2 +2.8 74 +6 +6 1023.1 955.1
05 18.09 З 2 30 км 8/1 1080 м
[Cu hum Ci fib]
+6.9 +2.3 72 +5 +5 1023.9 955.7
06 18.09 З 2 30 км 5/1 1080 м
[Cu hum Ci fib]
+7.7 +2.6 70 +6 +6 1024.3 956.3 +6.6 +14.3
07 18.09 СЗ 2 н/о н/о +9.5 +2.7 63 +8 +8 1024.4 956.8
08 18.09 СЗ 2 н/о н/о +11.1 +2.7 56 +10 +10 1024.3 957.1
09 18.09 СЗ 1 н/о н/о +11.2 +1.8 52 +11 +11 1024.2 957.0
10 18.09 СЗ 2 н/о н/о +12.8 +0.7 44 +12 +12 1023.9 957.1
11 18.09 СЗ 2 н/о н/о +13.9 +0.4 40 +14 +14 1023.5 956.9
12 18.09 С 2 30 км 3/1 1080 м
[Cu hum Ac cast Ci fib]
+14.8 -0.1 36 +15 +22 1022.9 956.6
13 18.09 СЗ 1 н/о н/о +15.5 +1.1 38 +16 +16 1022.5 956.4
14 18.09 С 1 н/о н/о +15.6 +1.9 40 +16 +16 1022.3 956.2
15 18.09 С 1 н/о н/о +15.2 +1.5 39 +16 +16 1022.1 955.9
16 18.09 СЗ 2 н/о н/о +14.6 +1.6 41 +15 +15 1022.1 955.8
17 18.09 СЗ 1 н/о н/о +12.3 +1.2 47 +13 +13 1022.8 955.9
18 18.09 Ю 1 30 км 8/1 1080 м
[Cu hum Ac lent Ci fib]
+9.5 +2.7 63 +9 +9 1024.1 956.5 +7.5 +16.3
19 18.09 Ю 2 н/о н/о +9.1 +2.5 63 +8 +8 1024.7 957.0
20 18.09 Ю 1 н/о н/о +6.8 +3.0 77 +6 +6 1025.7 957.4
21 18.09 ЮЗ 1 н/о н/о +5.7 +2.4 79 +5 +5 1026.1 957.5
22 18.09 ЮЗ 1 н/о н/о +4.6 +1.9 83 +3 +3 1026.5 957.6
23 18.09 Ю 1 н/о н/о +3.7 +1.6 86 +2 +2 1026.9 957.8
00 19.09 З 1 н/о н/о +3.3 +1.5 88 +2 +2 1027.0 957.8
01 19.09 Ю 1 н/о н/о +3.5 +1.5 87 +2 +2 1027.0 957.8
02 19.09 штиль 0 н/о н/о +2.7 +1.2 90 +2 +2 1027.3 957.9
03 19.09 Ю 1 н/о н/о +2.9 +1.2 89 +1 +1 1027.4 958.0
04 19.09 Ю 1 н/о н/о +3.1 +1.4 89 +2 +2 1027.5 958.2
05 19.09 ЮЗ 1 н/о н/о +3.6 +1.7 87 +2 +2 1027.7 958.5
06 19.09 штиль 0 н/о н/о +5.6 +2.3 79 +5 +5 1027.7 959.0 +2.5 +10.0
07 19.09 СЗ 1 н/о н/о +8.8 +3.9 71 +8 +8 1027.5 959.6
08 19.09 С 1 н/о н/о +10.7 +4.1 64 +11 +11 1027.6 960.1
09 19.09 С 1 н/о н/о +11.4 +3.0 56 +12 +12 1027.5 960.1
10 19.09 СЗ 3 н/о н/о +11.0 +2.3 55 +9 +9 1027.5 960.0
11 19.09 СЗ 2 н/о н/о +12.0 +2.0 50 +11 +11 1027.1 959.9
12 19.09 СЗ 2 н/о н/о +12.1 +1.4 48 +11 +11 1027.4 960.2
13 19.09 З 3 н/о н/о +13.4 +1.0 43 +13 +13 1026.7 959.8
14 19.09 СЗ 1 н/о н/о +14.4 +1.2 41 +15 +15 1026.6 960.0
15 19.09 С 1 н/о н/о +13.9 +1.2 42 +15 +15 1026.4 959.7
16 19.09 С 1 н/о н/о +12.1 +1.2 47 +12 +12 1027.0 959.8
17 19.09 СЗ 1 н/о н/о +10.0 +1.3 55 +10 +10 1027.8 960.1
18 19.09 З 1 30 км 8/1 1080 м
[Cu hum Ac cast Ci fib]
+8.3 +1.8 64 +8 +8 1028.9 960.7 +4.3 +15.2
19 19.09 ЮЗ 1 н/о н/о +6.1 +1.9 74 +5 +5 1029.9 961.1
20 19.09 ЮЗ 1 н/о н/о +4.9 +1.7 80 +4 +4 1030.6 961.5
21 19.09 ЮЗ 1 н/о н/о +4.2 +1.4 82 +3 +3 1031.2 961.9
22 19.09 ЮЗ 1 н/о н/о +3.2 +0.9 85 +2 +2 1031.5 961.9
23 19.09 Ю 1 н/о н/о +2.2 +0.4 88 +1 +1 1031.6 961.8
00 20.09 ЮЗ 1 н/о н/о +1.7 +0.2 90 -0 -0 1031.8 961.8
01 20.09 Ю 1 н/о н/о +1.2 -0.1 91 -1 -1 1031.5 961.4
02 20.09 Ю 1 н/о н/о +0.7 -0.5 92 -1 -1 1031.5 961.3
03 20.09 ЮЗ 1 н/о н/о +0.5 -0.6 92 -2 -2 1031.4 961.2
04 20.09 Ю 1 н/о н/о +0.3 -0.7 93 -2 -2 1031.5 961.2
05 20.09 Ю 1 3000 м дымка 8/1 420 м
[St Ci fib]
0.0 -0.8 94 -2 -2 1031.6 961.2
06 20.09 Ю 1 н/о н/о +1.9 +0.2 88 0 0 1031.3 961.4 -0.1 +8.6
07 20.09 штиль 0 н/о н/о +6.6 +2.2 73 +6 +6 1030.3 961.6
08 20.09 штиль 0 н/о н/о +9.7 +3.3 64 +9 +9 1029.8 961.9
09 20.09 СВ 1 н/о н/о +11.2 +3.1 57 +11 +11 1029.6 962.1 0.0
10 20.09 штиль 0 н/о н/о +12.3 +2.5 51 +12 +12 1028.8 961.6
11 20.09 СВ 1 н/о н/о +12.9 +1.4 45 +13 +13 1028.3 961.2
12 20.09 ЮВ 1 30 км 9/3 1080 м
[Cu hum Ac cast Ci fib]
+13.3 +0.8 42 +14 +18 1027.7 960.7 0.0
14 20.09 С 1 н/о н/о +15.4 +1.0 38 +16 +16 1026.5 960.1
15 20.09 С 1 н/о н/о +15.5 +1.7 39 +16 +16 1026.2 959.8
16 20.09 СЗ 1 н/о н/о +14.1 +0.4 39 +15 +15 1026.6 959.9
17 20.09 штиль 0 н/о н/о +11.8 -0.7 42 +12 +12 1027.1 959.8
18 20.09 Ю 1 н/о н/о +8.3 +1.8 64 +8 +8 1028.2 960.1 +1.5 +16.3 0.0
19 20.09 Ю 1 н/о н/о +6.3 +1.5 71 +5 +5 1029.0 960.3
20 20.09 Ю 1 н/о н/о +5.1 +1.4 77 +4 +4 1029.4 960.4
21 20.09 Ю 1 н/о н/о +4.2 +1.2 81 +3 +3 1029.7 960.5
22 20.09 Ю 1 н/о н/о +3.5 +0.8 82 +2 +2 1029.8 960.4
23 20.09 Ю 1 н/о н/о +2.9 +0.6 85 +1 +1 1029.6 960.1
00 21.09 Ю 1 н/о н/о +2.3 +0.3 87 +1 +1 1029.5 959.8
01 21.09 Ю 1 н/о н/о +2.0 +0.3 88 0 0 1029.2 959.5
02 21.09 Ю 1 н/о н/о +1.7 +0.2 90 -0 -0 1029.0 959.2
03 21.09 ЮЗ 1 н/о н/о +1.7 +0.1 89 -0 -0 1028.5 958.8
04 21.09 Ю 1 н/о н/о +1.5 0.0 90 -0 -0 1027.8 958.1
05 21.09 Ю 1 12 км 1/0
[Ci fib]
+1.4 0.0 90 -1 -1 1027.9 958.1
06 21.09 Ю 1 12 км ясно +3.3 +0.7 83 +2 +2 1027.3 958.0 +1.3 +8.7
07 21.09 штиль 0 н/о н/о +9.7 +3.3 64 +9 +9 1025.7 958.1
08 21.09 ЮВ 2 н/о н/о +11.8 +3.2 56 +11 +11 1025.2 958.1
09 21.09 ЮВ 3 н/о н/о +13.9 +3.3 49 +13 +13 1024.3 957.7
10 21.09 В 3 н/о н/о +15.6 +4.1 46 +15 +15 1023.7 957.5
11 21.09 В 3 н/о н/о +17.1 +4.7 44 +17 +17 1022.8 957.0
12 21.09 В 3 30 км ясно +18.0 +4.2 40 +18 +25 1022.0 956.5
13 21.09 В 3 н/о н/о +18.7 +5.4 42 +19 +19 1021.2 955.9
14 21.09 В 2 н/о н/о +19.3 +5.7 41 +20 +20 1020.5 955.4
15 21.09 В 3 н/о н/о +18.7 +5.9 43 +19 +19 1020.1 954.9
16 21.09 В 2 н/о н/о +17.4 +6.4 48 +18 +18 1020.1 954.6
17 21.09 В 2 н/о н/о +15.5 +5.8 52 +16 +16 1020.5 954.6
18 21.09 В 1 30 км 6/0
[Ci fib]
+13.2 +5.5 60 +14 +14 1021.0 954.5 +2.9 +19.5
19 21.09 Ю 1 н/о н/о +11.6 +5.3 65 +12 +12 1021.3 954.4
20 21.09 Ю 1 н/о н/о +9.7 +5.1 73 +9 +9 1021.0 953.7
21 21.09 ЮВ 1 н/о н/о +8.3 +4.9 79 +8 +8 1021.1 953.5
22 21.09 Ю 1 н/о н/о +7.3 +4.3 81 +6 +6 1020.9 953.1
23 21.09 Ю 1 н/о н/о +6.5 +3.9 83 +5 +5 1020.7 952.7
00 22.09 ЮЗ 1 н/о н/о +5.6 +3.4 86 +4 +4 1020.4 952.2
01 22.09 Ю 1 н/о н/о +4.8 +3.0 88 +3 +3 1020.2 951.8
02 22.09 ЮЗ 1 н/о н/о +4.3 +2.6 89 +3 +3 1019.8 951.3
03 22.09 Ю 1 н/о н/о +3.9 +2.5 91 +2 +2 1019.3 950.7
04 22.09 Ю 1 н/о н/о +3.6 +2.5 93 +2 +2 1018.9 950.3
05 22.09 штиль 0 12 км 8/0
[Ci fib]
+3.2 +2.0 92 +2 +2 1018.8 950.1
06 22.09 штиль 0 30 км 6/0
[Ci fib]
+6.5 +3.4 81 +6 +6 1017.9 950.1 +3.1 +13.7
07 22.09 ЮВ 2 н/о н/о +9.3 +4.0 69 +8 +8 1017.2 950.1
08 22.09 ЮВ 2 н/о н/о +10.9 +4.6 65 +10 +10 1016.7 950.0
09 22.09 В 2 н/о н/о +12.9 +5.4 60 +12 +12 1015.7 949.5
10 22.09 ЮВ 3 н/о н/о +13.8 +5.6 58 +13 +13 1015.2 949.2
11 22.09 В 3 н/о н/о +16.0 +6.3 53 +16 +16 1013.9 948.5
12 22.09 ЮВ 2 30 км 8/1 1080 м
[Cu hum Ac lent Cs]
+16.8 +6.3 50 +17 +22 1013.4 948.2
13 22.09 В 2 н/о н/о +17.0 +7.0 52 +17 +17 1012.8 947.7
14 22.09 В 2 н/о н/о +17.1 +7.1 52 +17 +17 1012.3 947.3
15 22.09 В 3 н/о н/о +16.5 +6.7 52 +16 +16 1012.3 947.1
16 22.09 В 1 н/о н/о +15.7 +7.0 56 +16 +16 1012.4 947.0
17 22.09 ЮВ 1 н/о н/о +14.9 +6.7 58 +16 +16 1012.3 946.8
18 22.09 Ю 1 30 км 10/1 960 м
[Frnb Ac As]
+13.2 +8.1 71 +13 +13 1012.8 946.9 +6.1 +17.3
19 22.09 Ю 1 н/о н/о +12.3 +7.7 73 +12 +12 1012.8 946.7
20 22.09 ЮЗ 1 н/о н/о +11.1 +7.8 80 +11 +11 1013.0 946.6
21 22.09 Ю 1 н/о н/о +9.9 +7.2 83 +9 +9 1012.9 946.2
22 22.09 ЮЗ 1 н/о н/о +9.7 +7.1 84 +9 +9 1012.7 946.0
23 22.09 штиль 0 н/о н/о +9.6 +6.9 83 +9 +9 1012.6 945.9
00 23.09 Ю 1 н/о н/о +9.0 +7.1 88 +8 +8 1013.1 946.2
01 23.09 Ю 1 н/о н/о +9.0 +7.0 87 +8 +8 1012.7 945.8
02 23.09 штиль 0 н/о н/о +9.4 +7.3 87 +9 +9 1012.6 945.8
03 23.09 Ю 1 н/о н/о +9.6 +7.5 87 +9 +9 1012.6 945.9
04 23.09 Ю 1 н/о н/о +9.8 +7.7 87 +9 +9 1012.6 945.9
05 23.09 Ю 1 12 км 9/1 1080 м
[Cu hum Ac lent Ci fib]
+9.8 +7.8 87 +9 +9 1013.0 946.3
06 23.09 Ю 1 12 км 9/1 1080 м
[Cu hum Ac lent Ci fib]
+10.2 +8.3 88 +10 +10 1013.0 946.4 +8.9 +13.5
07 23.09 ЮЗ 1 н/о н/о +12.5 +8.5 77 +13 +13 1012.6 946.6
08 23.09 СВ 1 н/о н/о +15.7 +8.9 64 +16 +16 1012.4 947.1
09 23.09 С 1 н/о н/о +17.7 +9.6 59 +19 +19 1012.2 947.3
10 23.09 СВ 1 н/о н/о +18.1 +10.2 60 +19 +19 1012.2 947.4
11 23.09 З 3 н/о н/о +19.2 +9.9 55 +20 +20 1011.8 947.3
12 23.09 СЗ 2 30 км 9/1 900 м
[Cu med, cong Ac As Cc]
+20.1 +10.1 53 +22 +26 комфорт 1011.4 947.1
13 23.09 З 4 н/о н/о +18.0 +10.7 62 +18 +18 1012.3 947.5 0.0
14 23.09 З 2 н/о н/о +17.7 +10.9 64 +18 +18 1012.8 947.9
15 23.09 З 3 н/о н/о +16.7 +11.2 70 +16 +16 1013.1 948.0 0.0
16 23.09 ЮЗ 3 н/о н/о +16.1 +11.2 73 +16 +16 1013.7 948.4
17 23.09 З 3 н/о н/о +15.2 +11.2 77 +15 +15 1014.2 948.7
18 23.09 ЮЗ 3 12 км в посл. час ливневой дождь 9/6 900 м
[Frnb Ac As Ci fib]
+14.9 +11.2 79 +14 +14 1014.7 949.1 +10.1 +20.7 0.0
19 23.09 З 2 н/о н/о +14.7 +11.2 80 +14 +14 1015.2 949.5

 

Местоположение метеостанции Вайтра (Австрия): широта 48.70 долгота 14.88 высота над уровнем моря 571 м.

В архиве по умолчанию представлена погода в Вайтре за последнюю неделю. Архивные данные за месяц целиком и за предыдущие месяцы, начиная с января 2011 года, Вы можете получить, выбрав интересующий диапазон дат из раскрывающегося списка и нажав кнопку "Ввод!".


*Определитесь, кто Вы:
робот инопланетянин человек

Внимание! Время в таблицах - всемирное. Для получения местного времени необходимо прибавить поправку, которая равна 1 ч.

Смотрите также архив погоды в соседних городах и на ближайших метеорологических станциях:

Погода в Цветле (Австрия) (25 км)
Погода в Личау (Австрия) (30 км)
Погода в Бернкопфе (Австрия) (36 км)
Погода в Аллентштайге (Австрия) (36 км)
Погода в Ческе-Будеёвице (Чехия) (41 км)
Погода в Яуерлинге (Австрия) (53 км)
Погода в Гарс-ам-Кампе (Австрия) (60 км)
Погода в Линце город (Австрия) (63 км)
Погода в Кремс-ан-дер-Донау (Австрия) (63 км)
Погода в Лангенлойсе (Австрия) (66 км)

Пояснения к столбцам:

Ветер - указаны скорость ветра в м/с - средняя за 10 мин, порывы в срок и между сроками (в фигурных скобках) и направление, откуда дует ветер: С - северный, СВ - северо-восточный, В - восточный, ЮВ - юго-восточный, Ю - южный, ЮЗ - юго-западный, З - западный, СЗ - северо-западный.
Видимость - горизонтальная дальность видимости в метрах или километрах. При видимости от 1 до 10 км при отсутствии осадков обычно наблюдается дымка, при ухудшении видимости до 1 км и менее - туман. В сухую погоду видимость может ухудшаться дымом, пылью или мглою.
Явления - указаны атмосферные явления, наблюдавшиеся в срок или в последний час перед сроком; фигурными скобками обозначены явления, наблюдавшиеся между сроками (за 1-3 часа до срока); квадратными скобками обозначены град или гололедные отложения с указанием их диаметра в мм.
Облачность - указаны через наклонную черту общая и нижняя облачность в баллах и высота нижней границы облаков в метрах; квадратными скобками обозначены формы облаков: Ci - перистые, Cs - перисто-слоистые, Cc - перисто-кучевые, Ac - высококучевые, As - высокослоистые, Sc - слоисто-кучевые, Ns - слоисто-дождевые, Cu - кучевые, Cb - кучево-дождевые. Подробнее классификацию облаков см. в Атласе облаков (PDF).
T - Температура воздуха - температура, измеренная на высоте 2 м над землей.
Td - Температура точки росы - температура, при понижении до которой содержащийся в воздухе водяной пар достигнет насыщения.
f - Относительная влажность воздуха - влажноcть воздуха, измеренная на высоте 2 м над землей.
Te - Эффективная температура - температура, которую ощущает одетый по сезону человек в тени. Характеристика душности погоды. При расчете учитывается влияние влажности воздуха и скорости ветра на теплоощущения человека.
Tes - Эффективная температура на солнце - температура, которую ощущает человек, с поправкой на солнечный нагрев. Характеристика знойности погоды. Зависит от высоты солнца над горизонтом, облачности и скорости ветра. Ночью, в пасмурную погоду, а также при ветре 12 м/с и более поправка равна нулю.
P - Атмосферное давление - приведенное к уровню моря атмосферное давление.
Po - Атмосферное давление - измеренное на уровне метеостанции атмосферное давление.
Tmin - Минимальная температура - минимум температуры воздуха на высоте 2 м над землей.
Tmax - Максимальная температура - максимум температуры воздуха на высоте 2 м над землей.
R - Количество осадков - Количество выпавших осадков за период времени, мм. При наведении курсора мыши на число - период времени, за который выпало указанное количество осадков.
R24 - Количество осадков - Количество выпавших осадков за 24 часа, мм.
S - Снежный покров - Высота снежного покрова, см. При наведении курсора мыши на число - состояние снежного покрова и степень покрытия местности в баллах.